When you browse on this site, cookies collect data to enhance your experience and personalize the content and advertising you see.
Visit our Privacy Policy to learn more. By continuing to use the site, you agree to this use of cookies and data.
  • In France
  • List of Countries
  • For 7 days
  • Water Temperature
  • Weather Map
  • Weather Widgets
  • user-avatar
    Login

    Hourly Weather Bridlington

    Today, 22 August, Thursday

    Time Temperature Precipitation Wind Pressure Humidity
    00:00 +16°C° 0 mm 7 mps 763 mmHg 65%
    01:00 +16°C° 0.1 mm 7 mps 763 mmHg 68%
    02:00 +15°C° 0.1 mm 7 mps 763 mmHg 71%
    03:00 +15°C° 0.1 mm 7 mps 762 mmHg 74%
    04:00 +15°C° 0.4 mm 7 mps 762 mmHg 78%
    05:00 +15°C° 0.4 mm 7 mps 762 mmHg 81%
    06:00 +15°C° 0 mm 7 mps 763 mmHg 85%
    07:00 +15°C° 0.1 mm 7 mps 763 mmHg 84%
    08:00 +16°C° 0.1 mm 7 mps 763 mmHg 84%
    09:00 +16°C° 0.1 mm 7 mps 763 mmHg 83%
    10:00 +17°C° 0.1 mm 7 mps 763 mmHg 80%
    11:00 +18°C° 0.1 mm 7 mps 763 mmHg 77%
    12:00 +20°C° 0.1 mm 7 mps 763 mmHg 74%
    13:00 +21°C° 0 mm 7 mps 763 mmHg 73%
    14:00 +21°C° 0 mm 7 mps 763 mmHg 71%
    15:00 +21°C° 0 mm 8 mps 762 mmHg 70%
    16:00 +21°C° 0 mm 7 mps 762 mmHg 72%
    17:00 +21°C° 0 mm 7 mps 762 mmHg 73%
    18:00 +20°C° 0 mm 7 mps 762 mmHg 75%
    19:00 +20°C° 0 mm 7 mps 763 mmHg 76%
    20:00 +18°C° 0 mm 7 mps 763 mmHg 78%
    21:00 +18°C° 0 mm 7 mps 764 mmHg 80%
    22:00 +17°C° 0 mm 6 mps 764 mmHg 82%
    23:00 +17°C° 0 mm 6 mps 764 mmHg 83%

    Tomorrow, 23 August, Friday

    Time Temperature Precipitation Wind Pressure Humidity
    00:00 +17°C° 0 mm 6 mps 764 mmHg 85%
    01:00 +17°C° 0 mm 5 mps 764 mmHg 88%
    02:00 +16°C° 0 mm 5 mps 764 mmHg 90%
    03:00 +16°C° 0 mm 5 mps 764 mmHg 93%
    04:00 +16°C° 0 mm 5 mps 764 mmHg 93%
    05:00 +16°C° 0 mm 5 mps 764 mmHg 92%
    06:00 +16°C° 0 mm 5 mps 764 mmHg 92%
    07:00 +18°C° 0 mm 4 mps 765 mmHg 86%
    08:00 +19°C° 0 mm 4 mps 765 mmHg 81%
    09:00 +21°C° 0 mm 4 mps 765 mmHg 75%
    10:00 +22°C° 0 mm 4 mps 765 mmHg 70%
    11:00 +23°C° 0 mm 4 mps 765 mmHg 65%
    12:00 +25°C° 0 mm 3 mps 765 mmHg 60%
    13:00 +25°C° 0 mm 4 mps 765 mmHg 60%
    14:00 +25°C° 0 mm 4 mps 765 mmHg 60%
    15:00 +25°C° 0 mm 5 mps 765 mmHg 60%
    16:00 +25°C° 0 mm 5 mps 765 mmHg 63%
    17:00 +25°C° 0 mm 5 mps 764 mmHg 65%
    18:00 +23°C° 0 mm 5 mps 764 mmHg 67%
    19:00 +22°C° 0 mm 5 mps 764 mmHg 72%
    20:00 +21°C° 0 mm 5 mps 764 mmHg 76%
    21:00 +19°C° 0 mm 5 mps 765 mmHg 80%
    22:00 +19°C° 0 mm 5 mps 764 mmHg 82%
    23:00 +18°C° 0 mm 4 mps 764 mmHg 85%

    Day after tomorrow, 24 August, Saturday

    Time Temperature Precipitation Wind Pressure Humidity
    00:00 +18°C° 0 mm 4 mps 764 mmHg 87%
    01:00 +18°C° 0 mm 4 mps 764 mmHg 87%
    02:00 +17°C° 0 mm 4 mps 764 mmHg 87%
    03:00 +17°C° 0 mm 4 mps 764 mmHg 86%
    04:00 +17°C° 0 mm 4 mps 763 mmHg 84%
    05:00 +17°C° 0 mm 4 mps 763 mmHg 82%
    06:00 +17°C° 0 mm 3 mps 763 mmHg 80%
    07:00 +18°C° 0 mm 4 mps 763 mmHg 74%
    08:00 +20°C° 0 mm 4 mps 763 mmHg 67%
    09:00 +22°C° 0 mm 4 mps 763 mmHg 60%
    10:00 +23°C° 0 mm 4 mps 763 mmHg 56%
    11:00 +25°C° 0 mm 5 mps 763 mmHg 51%
    12:00 +26°C° 0 mm 5 mps 763 mmHg 47%
    13:00 +26°C° 0 mm 5 mps 762 mmHg 49%
    14:00 +26°C° 0 mm 5 mps 762 mmHg 51%
    15:00 +26°C° 0 mm 6 mps 762 mmHg 53%
    16:00 +25°C° 0 mm 5 mps 762 mmHg 58%
    17:00 +22°C° 0 mm 5 mps 761 mmHg 63%
    18:00 +21°C° 0 mm 5 mps 761 mmHg 68%
    19:00 +20°C° 0 mm 5 mps 761 mmHg 71%
    20:00 +19°C° 0 mm 5 mps 762 mmHg 73%
    21:00 +17°C° 0 mm 5 mps 762 mmHg 76%
    22:00 +18°C° 0 mm 4 mps 762 mmHg 78%
    23:00 +18°C° 0 mm 4 mps 761 mmHg 80%

    25 August, Sunday

    Time Temperature Precipitation Wind Pressure Humidity
    00:00 +17°C° 0 mm 4 mps 761 mmHg 81%
    01:00 +17°C° 0 mm 3 mps 761 mmHg 81%
    02:00 +17°C° 0 mm 3 mps 761 mmHg 81%
    03:00 +17°C° 0 mm 2 mps 761 mmHg 81%
    04:00 +17°C° 0 mm 2 mps 761 mmHg 80%
    05:00 +17°C° 0 mm 2 mps 761 mmHg 79%
    06:00 +18°C° 0 mm 2 mps 761 mmHg 78%
    07:00 +19°C° 0 mm 3 mps 761 mmHg 72%
    08:00 +21°C° 0 mm 3 mps 761 mmHg 67%
    09:00 +24°C° 0 mm 3 mps 761 mmHg 61%
    10:00 +25°C° 0 mm 3 mps 761 mmHg 59%
    11:00 +26°C° 0 mm 4 mps 761 mmHg 56%
    12:00 +27°C° 0 mm 4 mps 761 mmHg 53%
    13:00 +27°C° 0 mm 4 mps 761 mmHg 54%
    14:00 +26°C° 0 mm 4 mps 761 mmHg 55%
    15:00 +26°C° 0 mm 4 mps 761 mmHg 56%
    16:00 +25°C° 0 mm 4 mps 761 mmHg 60%
    17:00 +23°C° 0 mm 4 mps 761 mmHg 64%
    18:00 +22°C° 0 mm 4 mps 761 mmHg 68%
    19:00 +21°C° 0 mm 4 mps 761 mmHg 71%
    20:00 +20°C° 0 mm 4 mps 762 mmHg 74%
    21:00 +18°C° 0 mm 4 mps 762 mmHg 77%
    22:00 +18°C° 0 mm 4 mps 762 mmHg 77%
    23:00 +18°C° 0 mm 4 mps 762 mmHg 78%

    26 August, Monday

    Time Temperature Precipitation Wind Pressure Humidity
    00:00 +18°C° 0 mm 3 mps 762 mmHg 78%
    01:00 +18°C° 0 mm 3 mps 762 mmHg 78%
    02:00 +18°C° 0 mm 2 mps 761 mmHg 79%
    03:00 +18°C° 0 mm 2 mps 761 mmHg 79%
    04:00 +18°C° 0 mm 2 mps 761 mmHg 80%
    05:00 +18°C° 0 mm 2 mps 762 mmHg 81%
    06:00 +18°C° 0 mm 2 mps 762 mmHg 82%
    07:00 +20°C° 0 mm 3 mps 762 mmHg 77%
    08:00 +22°C° 0 mm 3 mps 761 mmHg 71%
    09:00 +25°C° 0 mm 4 mps 761 mmHg 66%
    10:00 +26°C° 0 mm 4 mps 761 mmHg 61%
    11:00 +27°C° 0 mm 4 mps 761 mmHg 57%
    12:00 +28°C° 0 mm 4 mps 761 mmHg 52%
    13:00 +29°C° 0 mm 4 mps 761 mmHg 52%
    14:00 +29°C° 0 mm 4 mps 761 mmHg 52%
    15:00 +29°C° 0 mm 4 mps 760 mmHg 51%
    16:00 +27°C° 0 mm 4 mps 760 mmHg 57%
    17:00 +25°C° 0 mm 4 mps 760 mmHg 63%
    18:00 +22°C° 0 mm 5 mps 760 mmHg 69%
    19:00 +21°C° 0 mm 4 mps 760 mmHg 73%
    20:00 +20°C° 0 mm 4 mps 760 mmHg 77%
    21:00 +19°C° 0 mm 4 mps 760 mmHg 80%
    22:00 +18°C° 0 mm 4 mps 760 mmHg 82%
    23:00 +18°C° 0 mm 3 mps 760 mmHg 84%

    27 August, Tuesday

    Time Temperature Precipitation Wind Pressure Humidity
    00:00 +18°C° 0 mm 3 mps 760 mmHg 87%
    01:00 +17°C° 0 mm 3 mps 759 mmHg 88%
    02:00 +17°C° 0 mm 2 mps 759 mmHg 90%
    03:00 +16°C° 0 mm 2 mps 759 mmHg 91%
    04:00 +16°C° 0 mm 2 mps 759 mmHg 91%
    05:00 +16°C° 0 mm 2 mps 758 mmHg 92%
    06:00 +16°C° 0 mm 2 mps 758 mmHg 93%
    07:00 +18°C° 0 mm 2 mps 758 mmHg 88%
    08:00 +19°C° 0 mm 2 mps 758 mmHg 83%
    09:00 +21°C° 0 mm 2 mps 758 mmHg 78%
    10:00 +23°C° 0 mm 2 mps 758 mmHg 74%
    11:00 +24°C° 0 mm 2 mps 758 mmHg 71%
    12:00 +25°C° 0 mm 3 mps 757 mmHg 67%
    13:00 +25°C° 0.1 mm 3 mps 757 mmHg 68%
    14:00 +25°C° 0.1 mm 3 mps 757 mmHg 69%
    15:00 +25°C° 0.1 mm 3 mps 756 mmHg 70%
    16:00 +25°C° 0.1 mm 3 mps 756 mmHg 72%
    17:00 +24°C° 0.1 mm 3 mps 756 mmHg 75%
    18:00 +22°C° 0.1 mm 3 mps 756 mmHg 78%
    19:00 +21°C° 0.1 mm 3 mps 756 mmHg 82%
    20:00 +20°C° 0.1 mm 3 mps 756 mmHg 86%
    21:00 +19°C° 0.1 mm 3 mps 756 mmHg 91%
    22:00 +19°C° 0.2 mm 3 mps 755 mmHg 91%
    23:00 +19°C° 0.2 mm 2 mps 755 mmHg 92%
    Show more